This is the latest recevied weather packets stored in our database for station/object F4JUT-10. If no packets are shown the sender has not sent any weather packets the latest 10 day(s).
| Time | Temp. | Humidity | Pressure | Rain* | Wind** | Luminosity | Snow |
|---|---|---|---|---|---|---|---|
| 1777852972 | 11.67° C | 52% | 1017.7 hPa | - | - | - | - |
| 1777852072 | 11.67° C | 52% | 1018 hPa | - | - | - | - |
| 1777851172 | 12.22° C | 53% | 1017.9 hPa | - | - | - | - |
| 1777850271 | 12.22° C | 52% | 1018.2 hPa | - | - | - | - |
| 1777849371 | 12.22° C | 51% | 1018.3 hPa | - | - | - | - |
| 1777848470 | 12.22° C | 51% | 1018.4 hPa | - | - | - | - |
| 1777847570 | 12.78° C | 50% | 1018.3 hPa | - | - | - | - |
| 1777846670 | 12.78° C | 49% | 1018.4 hPa | - | - | - | - |
| 1777845770 | 12.78° C | 49% | 1018.4 hPa | - | - | - | - |
| 1777844870 | 12.78° C | 50% | 1018.3 hPa | - | - | - | - |
| 1777843969 | 12.78° C | 49% | 1018.2 hPa | - | - | - | - |
| 1777843069 | 12.78° C | 49% | 1017.9 hPa | - | - | - | - |
| 1777842169 | 12.78° C | 48% | 1018.1 hPa | - | - | - | - |
| 1777841269 | 12.78° C | 48% | 1018.2 hPa | - | - | - | - |
| 1777840369 | 12.78° C | 47% | 1018.4 hPa | - | - | - | - |
| 1777839469 | 13.33° C | 47% | 1018.4 hPa | - | - | - | - |
| 1777838569 | 13.33° C | 46% | 1018.3 hPa | - | - | - | - |
| 1777837669 | 13.89° C | 45% | 1018.2 hPa | - | - | - | - |
| 1777836769 | 14.44° C | 43% | 1018.1 hPa | - | - | - | - |
| 1777835869 | 15° C | 43% | 1017.9 hPa | - | - | - | - |
| 1777834969 | 15.56° C | 41% | 1017.8 hPa | - | - | - | - |
| 1777834069 | 16.11° C | 40% | 1017.7 hPa | - | - | - | - |
| 1777833168 | 16.67° C | 39% | 1017.6 hPa | - | - | - | - |
| 1777832268 | 17.22° C | 37% | 1017.7 hPa | - | - | - | - |
| 1777831368 | 18.33° C | 36% | 1017.6 hPa | - | - | - | - |
* Rain since midnight (hover to see other rain measurements)
** Current wind speed in m/s (hover to see current wind gust speed)